Overview Statistics Trail Chart Weather Telemetry Raw packets
 

This is the latest recevied weather packets stored in our database for station/object IN3MWE-10. If no packets are shown the sender has not sent any weather packets the latest 10 day(s).

<< 29 30 31 32 33 34 35 >>
Time Temp. Humidity Pressure Rain* Wind** Luminosity Snow
1787976313 19.44° C 100% 979.5 hPa - - - -
1787975413 19.44° C 100% 979.4 hPa - - - -
1787974513 19.44° C 100% 979.4 hPa - - - -
1787973613 20° C 100% 979.5 hPa - - - -
1787972712 19.44° C 100% 979.7 hPa - - - -
1787971827 20° C 100% 979.5 hPa - - - -
1787970927 19.44° C 100% 979.3 hPa - - - -
1787970027 19.44° C 100% 979.4 hPa - - - -
1787969127 19.44° C 100% 979.4 hPa - - - -
1787968226 19.44° C 100% 979.2 hPa - - - -
1787967326 19.44° C 100% 979.1 hPa - - - -
1787966426 19.44° C 100% 979.1 hPa - - - -
1787965526 19.44° C 100% 978.9 hPa - - - -
1787964626 19.44° C 100% 979.1 hPa - - - -
1787963727 19.44° C 100% 978.9 hPa - - - -
1787962826 20° C 100% 979 hPa - - - -
1787961925 20.56° C 100% 979.2 hPa - - - -
1787961025 20.56° C 100% 978.7 hPa - - - -
1787960125 20.56° C 100% 978.4 hPa - - - -
1787959225 21.11° C 100% 978.3 hPa - - - -
1787958325 21.67° C 100% 978.3 hPa - - - -
1787957425 21.11° C 100% 978.5 hPa - - - -
1787956525 21.11° C 100% 978.5 hPa - - - -
1787955624 21.11° C 100% 978.2 hPa - - - -
1787954724 21.67° C 100% 978.1 hPa - - - -

* Rain since midnight (hover to see other rain measurements)
** Current wind speed in m/s (hover to see current wind gust speed)